Regional Weather Roundup
Issued by NWS

Home | Current Version | Previous Version | Graphics & Text | Print | Product List | Glossary Off
Versions: 1 2 3 4 5 6 7 8 9 10 11 12 13 14 15 16 17 18 19 20 21 22 23 24 25 26 27 28 29 30 31 32 33 34 35 36 37 38 39 40 41 42 43 44 45 46 47 48 49 50

000
ASUS43 KMKX 252100
RWRWI

WISCONSIN REGIONAL WEATHER ROUNDUP
NATIONAL WEATHER SERVICE MILWAUKEE/SULLIVAN WI
400 PM CDT SAT MAR 25 2017

NOTE: "FAIR" INDICATES FEW OR NO CLOUDS BELOW 12,000 FEET WITH NO
SIGNIFICANT WEATHER AND/OR OBSTRUCTIONS TO VISIBILITY.

WIZ001-002-006>008-014>016-023>028-252200-
NORTHWEST WISCONSIN

CITY           SKY/WX    TMP DP  RH WIND       PRES   REMARKS
SUPERIOR ARPT  CLOUDY    34  30  87 E15G29    30.21F WCI  24
ASHLAND        CLOUDY    37  30  75 NE17G23   30.20F WCI  27
HAYWARD        CLOUDY    43  29  57 VRB7G21   30.14F
SIREN          SUNNY     45  31  58 E13       30.12F
CUMBERLAND     CLOUDY    41  30  65 NE10G18   30.11F
RICE LAKE      CLOUDY    43  32  65 E9G17     30.13F
CHETEK         CLOUDY    41  32  70 E7        30.12S
LADYSMITH      CLOUDY    41  33  72 E12       30.15F
EAU CLAIRE     NOT AVBL
MENOMONIE      CLOUDY    41  33  73 NE17      30.10F
NEW RICHMOND   CLOUDY    42  32  68 E13       30.10F
OSCEOLA        CLOUDY    42  32  68 NE10G16   30.13F
$$

WIZ003>005-009-010-017-018-252200-
NORTH CENTRAL WISCONSIN

CITY           SKY/WX    TMP DP  RH WIND       PRES   REMARKS
MANITOWISH WTR CLOUDY    37  32  84 E10       30.16F WCI  29
ARBOR VITAE    CLOUDY    39  32  75 E5        30.15F
WOODRUFF       CLOUDY    39  32  75 E5        30.15F
RHINELANDER    CLOUDY    41  32  70 E13       30.15F
EAGLE RIVER    CLOUDY    37  28  70 E14       30.16F WCI  29
LAND O LAKES   CLOUDY    37  31  78 E9        30.19F WCI  30
PHILLIPS       CLOUDY    38  31  78 E8        30.14F WCI  32
TOMAHAWK       CLOUDY    39  30  71 E8G16     30.15F WCI  33
MEDFORD        CLOUDY    38  32  79 E15       30.11F WCI  29
MERRILL        CLOUDY    40  32  73 E10G16    30.14F WCI  34
$$

WIZ029-030-035-036-043>047-252200-
CENTRAL WISCONSIN

CITY           SKY/WX    TMP DP  RH WIND       PRES   REMARKS
WAUSAU         CLOUDY    40  32  73 E14       30.11F WCI  32
MOSINEE        CLOUDY    37  34  87 E16       30.13F WCI  28
MARSHFIELD     CLOUDY    39  32  76 E10G20    30.09F WCI  32
STEVENS POINT  CLOUDY    36  32  87 E15G26    30.13S WCI  26
WAUPACA        CLOUDY    38  33  82 NE9G22    30.15F WCI  32
WAUTOMA        LGT RAIN  36  35  96 NE13      30.12  FOG     WCI  27
WISC RAPIDS    CLOUDY    38  34  85 E16G22    30.12S WCI  29
CAMP DOUGLAS   LGT RAIN  37  36  93 E10       30.08F FOG     WCI  30
$$

WIZ011>013-019>022-031-037>040-048>050-252200-
NORTHEAST WISCONSIN

CITY           SKY/WX    TMP DP  RH WIND       PRES   REMARKS
ANTIGO         CLOUDY    37  32  80 E13       30.15S WCI  29
SHAWANO        CLOUDY    37  32  82 E18G24    30.19S WCI  27
OCONTO         CLOUDY    35  30  83 NE10G21   30.21S WCI  27
STURGEON BAY   CLOUDY    35  31  85 NE14G21   30.20S WCI  26
GREEN BAY      CLOUDY    37  35  92 NE21G28   30.17F WCI  26
MANITOWOC      NOT AVBL
APPLETON       DRIZZLE   36  36 100 NE18G25   30.12F WCI  25
CLINTONVILLE   CLOUDY    36  32  87 E15G24    30.18R WCI  26
OSHKOSH        CLOUDY    37  34  89 NE14      30.11F WCI  28
$$

WIZ032>034-041-042-053>061-252200-
SOUTHWEST WISCONSIN

CITY           SKY/WX    TMP DP  RH WIND       PRES   REMARKS
LA CROSSE      LGT RAIN  40  36  86 NE7       30.06F
SPARTA         LGT RAIN  37  35  94 E17G24    30.08F WCI  27
VIROQUA        CLOUDY    37  37  99 E16G24    30.02S WCI  27
BOSCOBEL       CLOUDY    40  37  89 NE9G16    30.02F WCI  34
PRAIRIE DU CHI DRIZZLE   39  38  97 NE12G18   30.00F WCI  31
PLATTEVILLE    CLOUDY    40  40 100 E22G30    29.97S WCI  31
$$

WIZ056-057-062-063-064-067-068-252200-
SOUTH CENTRAL WISCONSIN

CITY           SKY/WX    TMP DP  RH WIND       PRES   REMARKS
REEDSBURG      CLOUDY    37  37 100 E13G20    30.05F FOG     WCI  28
BARABOO/DELLS  LGT RAIN  37  36  96 E16G23    30.05F WCI  27
LONE ROCK      CLOUDY    40  36  86 E15       30.04S FOG     WCI  32
MINERAL POINT  CLOUDY    39  39 100 NE18G31   29.98S WCI  30
MADISON        CLOUDY    39  37  92 E17G23    30.05S WCI  30
MIDDLETON      CLOUDY    40  38  93 E17       30.04S WCI  32
WATERTOWN      CLOUDY    38  38 100 E16G22    30.06S FOG     WCI  29
MONROE         CLOUDY    39  37  93 NE17G26   29.98F FOG     WCI  30
JANESVILLE     CLOUDY    43  41  93 NE21      30.01F
$$

WIZ051-052-058>065-066-070>072-252200-
SOUTHEAST WISCONSIN

CITY           SKY/WX    TMP DP  RH WIND       PRES   REMARKS
MILWAUKEE      LGT RAIN  39  36  89 NE14      30.08S WCI  31
WAUKESHA       DRIZZLE   36  36 100 E15G22    30.07S WCI  26
MILWAUKEE/TIMM DRIZZLE   37  36  93 NE10      30.09F WCI  30
RACINE         CLOUDY    39  36  89 NE14      30.08S WCI  31
KENOSHA        CLOUDY    39  38  96 NE15      30.05S FOG     WCI  31
FOND DU LAC    CLOUDY    39  34  82 E13       30.11S WCI  31
SHEBOYGAN      LGT RAIN  38  35  89 NE20      30.10F WCI  28
WEST BEND      CLOUDY    37  37 100 E18G25    30.09S WCI  27
JUNEAU         LGT RAIN  37  36  94 NE13G21   30.08S WCI  29
$$

LSZ147-162-252200-
LAKE SUPERIOR

STATION/POSITION TIME  TEMP    WIND        PRES    WAVE
                       AIR SEA DIR/SP/G            HT/PER
                 (UTC) (F)     (DEG/KT/KT) (MB)    (FT/S)
DEVILS ISLAND    2000   32      60/ 20/ 24 1025.8F
PORT WING        2040   34      40/ 20/ 23 1023.4F
SAXON HARBOR     2040   34      50/ 16/ 19 1022.4F
$$

LMZ867-665-643>646-252200-
LAKE MICHIGAN

STATION/POSITION TIME  TEMP    WIND        PRES    WAVE
                       AIR SEA DIR/SP/G            HT/PER
                 (UTC) (F)     (DEG/KT/KT) (MB)    (FT/S)
CHAMBERS ISLAND  2040   33      30/ 12/ 17 1023.4S
NORTHPORT PIER   2040   34      70/ 17/ 21 1023.7S
SISTER BAY       1835   38      90/ 13/ 21   N/A
KEWAUNEE LAKESHO 2030   36      50/ 13/ 18 1021.4F
SHEBOYGAN LAKESH 2000   37      30/ 18/ 19 1020.7F
PORT WASHINGTON  2040   38      30/ 13/ 18 1020.3S
MILWAUKEE LAKESH 2030   37      20/ 15/ 16   N/A
KENOSHA   LAKESH 2000   38      30/ 14/ 17 1017.9
$$

TC  - TEMPERATURE IN CELSIUS
VSB - VISIBILITY IN STATUTE MILES
WCI - WIND CHILL INDEX
HX  - HEAT INDEX




USA.gov is the U.S. government's official web portal to all federal, state and local government web resources and services.